Current weather by "City, St" or "zip code"  
 

Current Conditions: Mora Municipal Airport, MN

Fair


36.0 F

Last Updated on Sep 18 2020, 12:55 am CDT
Humidity: 93%
Wind Speed: N 0.0 mph
Barometer 30.38 in
Dewpoint: 33.8 F
Visibility: 10.00 mi
Precip: --
Heat Index: NA
Wind Chill: NA
Current conditions at:

Mora Municipal Airport, MN (KJMR)

Lat: 45.88863 Lon: 93.26901

Local Radar Image active severe weather and emergency alerts image image weather storm and storm spotter reports image weather observation monitoring service image
Local
Radar
Active
Alerts
Storm Reports Obs
Monitoring

Sign-up For Email & Text Message Weather Alert Notification Services



Advertise Here

Observation History for Mora Municipal Airport, MN


Time Wind
(mph)
Vis
(mi)
Weather Precip (in) Temperature (F) Relative
Humidity
Wind
Chill
(F)
Heat
Index
(F)
Pressure
Air Dwpt altimeter
(in)
sea level
(mb)
Rmks
12:55 am CDT N 0.0 10.00 Fair -- 36.0 33.8 93% NA NA 30.38 M
11:55 pm CDT N 0.0 10.00 Fair -- 37.0 35.6 93% NA NA 30.38 M
10:55 pm CDT N 0.0 10.00 Partly Cloudy -- 37.0 35.6 93% NA NA 30.37 M
9:55 pm CDT N 0.0 10.00 Fair -- 39.0 37.4 93% NA NA 30.35 M
8:55 pm CDT N 0.0 10.00 Fair -- 43.0 39.2 87% NA NA 30.34 M
7:55 pm CDT N 0.0 10.00 Fair -- 45.0 41.0 87% NA NA 30.32 M
6:55 pm CDT W 3.5 10.00 Fair -- 50.0 35.6 58% NA NA 30.30 M
5:55 pm CDT NW 5.8 10.00 Fair -- 54.0 35.6 51% 53 NA 30.30 M
4:55 pm CDT N 3.5 10.00 Mostly Cloudy -- 55.0 33.8 44% NA NA 30.30 M
3:55 pm CDT NE 6.9 10.00 Partly Cloudy -- 55.0 32.0 41% 53 NA 30.30 M
2:55 pm CDT N 6.9 G 16.1 10.00 Fair -- 55.0 33.8 44% 53 NA 30.31 M
1:55 pm CDT N 0.0 10.00 Fair -- 54.0 32.0 44% NA NA 30.32 M
12:55 pm CDT N 3.5 10.00 Fair -- 54.0 32.0 44% NA NA 30.34 M
11:55 am CDT N 5.8 10.00 Fair -- 50.0 32.0 50% 48 NA 30.34 M
10:55 am CDT N 0.0 10.00 Fair -- 48.0 32.0 54% NA NA 30.35 M
9:55 am CDT NE 3.5 10.00 Fair -- 46.0 33.8 62% NA NA 30.34 M
8:55 am CDT N 0.0 10.00 Fair -- 41.0 33.8 76% NA NA 30.33 M
7:55 am CDT N 0.0 10.00 Fair -- 36.0 33.8 93% NA NA 30.32 M
6:55 am CDT N 0.0 10.00 Fair -- 34.0 32.0 93% NA NA 30.31 M
5:55 am CDT N 0.0 10.00 Fair -- 34.0 32.0 93% NA NA 30.30 M
4:55 am CDT N 0.0 10.00 Fair -- 34.0 32.0 93% NA NA 30.29 M
3:55 am CDT N 0.0 10.00 Fair -- 36.0 33.8 93% NA NA 30.29 M
2:55 am CDT N 0.0 10.00 Fair -- 36.0 33.8 93% NA NA 30.28 M
1:55 am CDT N 0.0 10.00 Fair -- 37.0 35.6 93% NA NA 30.27 M

Regional Weather Observation


Aitkin Municipal Airport - Steve Kurtz Field, MN (KAIT)

Fog/Mist
30.0 F

Mc Gregor - Isedor Iverson Airport, MN (KHZX)

Fair
34.0 F

Hinckley Field of Dreams Airport, MN (K04W)

Fair
34.0 F

Cambridge Municipal Airport, MN (KCBG)

Fair
41.0 F

Princeton, MN (KPNM)

Fair
39.0 F

Moose Lake Carlton County Airport, MN (KMZH)

Fair
32.0 F